Miscellaneous Local Product
Issued by NWS North Platte, NE

Home | Current Version | Previous Version | Graphics & Text | Print | Product List | Glossary On
Versions: 1 2 3 4 5 6 7 8 9 10 11 12 13 14 15 16 17 18 19 20 21 22 23 24 25 26 27 28 29 30 31 32 33 34 35 36 37 38 39 40 41 42 43 44 45 46 47 48 49 50
000
AXUS43 KLBF 011610
MISLBF


WESTERN AND NORTH CENTRAL NEBRASKA HOURLY WEATHER ROUNDUP
NATIONAL WEATHER SERVICE NORTH PLATTE NE
1000 AM CST SUN MAR 01 2015

***STATIONS NOT REPORTING VARIABLES SUCH AS SKY/WEATHER OR
PRESSURE ARE PROVIDED BY THE NEBRASKA DEPARTMENT OF
ROADS...RAWS...AND APRS NETWORKS...AND ARE NOT UNDER
NATIONAL WEATHER SERVICE QUALITY CONTROL***

...OBSERVATIONS IN AND NEAR THE EASTERN PANHANDLE OF NEBRASKA...

CITY           SKY/WX    TMP DP  RH WIND       PRES   REMARKS
PINE RIDGE     PTSUNNY   21  12  68 NW8       30.28R WCI  11
CHADRON        PTSUNNY   25  13  60 NW9       30.30R WCI  15
ALLIANCE       PTSUNNY   21  12  68 NW7       30.26R WCI  12
SIDNEY         SUNNY     23  15  71 N6        30.26R WCI  16
WHITECLAY        N/A     21  13  70 W10         N/A  WCI  10
CRESCENT LAKE    N/A     22  12  64 NW6         N/A  WCI  15
LISCO            N/A     24  11  57 SW8         N/A  WCI  16
BIG SPRINGS      N/A     24  17  73 NE3         N/A
LEWELLEN         N/A     22  14  71 CALM        N/A
$$

...OBSERVATIONS IN NORTH CENTRAL NEBRASKA...

CITY           SKY/WX    TMP DP  RH WIND       PRES   REMARKS
VALENTINE      CLOUDY    23  13  65 W10       30.32R WCI  12
THEDFORD       SUNNY     25  14  64 NW6       30.31S WCI  18
AINSWORTH      SUNNY     23  15  70 W7        30.31S WCI  14
O`NEILL        CLOUDY    25  15  68 NW8       30.34R WCI  16
ORD            CLOUDY    25  12  58 N10       30.34R WCI  15
BROKEN BOW     SUNNY     26  13  57 N9        30.32R WCI  17
BROWNLEE         N/A     22  14  70 NW9         N/A  WCI  12
SPRINGVIEW       N/A     23  15  71 SW5G12      N/A  WCI  17
BREWSTER         N/A     28  14  57 NW8         N/A  WCI  20
ROSE             N/A     27  18  69 S3          N/A
NEWPORT          N/A     29  20  69 W13         N/A  WCI  19
COMSTOCK         N/A     30  18  59 NE5         N/A  WCI  25
CHAMBERS         N/A     26  11  53 N6          N/A  WCI  19
EWING            N/A     26  17  70 NW7         N/A  WCI  18
$$

...OBSERVATIONS IN SOUTHWEST NEBRASKA AND FAR NORTHEAST COLORADO...

CITY           SKY/WX    TMP DP  RH WIND       PRES   REMARKS
WRAY           FAIR      27  17  66 N7        30.28R WCI  19
IMPERIAL         N/A     24  14  65 N8        30.29R WCI  15
OGALLALA       SUNNY     24  12  59 NE5       30.31R WCI  18
NORTH PLATTE   SUNNY     27   8  44 NE6       30.32R WCI  20
MCCOOK         SUNNY     28  15  58 VRB3      30.32R
LEXINGTON      SUNNY     26  16  65 N6        30.33R WCI  20
PAXTON           N/A     24  13  61 NE5         N/A  WCI  18
BRADY            N/A     26  10  51 CALM        N/A
GOTHENBURG       N/A     28   9  44 NE5         N/A  WCI  23
CALLAWAY         N/A     25  14  63 NE7         N/A  WCI  17
$$

...NORTH PLATTE AREA...

CITY           SKY/WX    TMP DP  RH WIND       PRES   REMARKS
AIRPORT        SUNNY     27   8  44 NE6       30.32R WCI  20
DOWNTOWN         N/A     25  10  51 CALM        N/A
$$

...SOME WEATHER OBSERVATIONS FROM AROUND THE REGION...

CITY           SKY/WX    TMP DP  RH WIND       PRES   REMARKS
DENVER         FOG       15  14  95 SW5       30.20R VSB 1/4 WCI   8
LARAMIE        PTSUNNY    9   6  88 CALM      30.10R
CHEYENNE       CLOUDY    14  10  84 N8        30.15R FOG     WCI   3
SCOTTSBLUFF    MOSUNNY   23  13  65 W8        30.27R WCI  14
RAPID CITY     SUNNY     22  11  62 NW5       30.26R WCI  16
PIERRE         MOSUNNY   24  11  57 W18       30.29R WCI  10
WINNER         FAIR      27   9  46 W15G26    30.31S WCI  15
SIOUX FALLS    PTSUNNY   19  11  70 W8        30.32R WCI   9
OMAHA          MOSUNNY   25  15  66 NW8       30.39R WCI  16
GRAND ISLAND   SUNNY     25  16  68 NE7       30.35S WCI  17
KANSAS CITY    PTSUNNY   27  20  75 N6        30.39S WCI  20
WICHITA        LGTSLEET  25  21  85 NW3       30.40R FOG
HAYS           FAIR      25  12  58 W5        30.36R WCI  19
LIBERAL        CLOUDY    23  18  80 NE5       30.31R WCI  17
GOODLAND       CLOUDY    24  18  77 N10       30.26R WCI  14
$$



USA.gov is the U.S. government's official web portal to all federal, state and local government web resources and services.